Flag for Andorra Weather past 2 weeks in Andorra La Vella, Andorra

Now
70 °F

Passing clouds.


Feels Like: 70 °F
Forecast: 36 / 71 °F
Wind: 20 mph from Northwest

Location: Carcassonne Airport

Current Time: May 27, 2015 at 2:40:48 PM

Latest Report: May 27, 2015 at 2:00 PM


Visibility: N/A

Pressure: 30.15 "Hg

Humidity: 31%

Dew point: 37 °F

Location of Andorra La VellaLocation

Historic Weather in Andorra La Vella — Graph

°F

Andorra La Vella temperature yesterday

Maximum temperature yesterday: 68 °F (at 4:00 PM)
Minimum temperature yesterday: 54 °F (at 7:30 AM)
Average temperature yesterday: 61 °F

Past Weeks' High & Low Weather Summary

 TemperatureHumidityPressure
High77 °F (May 18, 4:30 PM)100% (May 13, 4:30 AM)30.39 "Hg (May 13, 4:30 AM)
Low46 °F (May 22, 6:00 AM)30% (May 21, 4:00 PM)29.86 "Hg (May 18, 5:00 PM)
Average60 °F69%30.13 "Hg
* Reported May 12 1:00 PM — May 27 1:30 PM, Andorra La Vella, Weather by CustomWeather, © 2015

Note: Actual official high and low records may vary slightly from our data, if they occured in-between our weather recording intervals... More about our weather records

Advertising

Andorra La Vella weather history for previous 24 hours

 ConditionsComfort  
Time TempWeatherWind HumidityBarometerVisibility
1:30 PM
Wed, May 27
68 °FSunny.18 mph33%30.18 "Hg10 mi
1:00 PM68 °FSunny.18 mph33%30.18 "Hg10 mi
12:30 PM66 °FPassing clouds.20 mph32%30.18 "HgN/A
12:00 PM66 °FSunny.23 mph35%30.18 "Hg10 mi
11:30 AM64 °FSunny.21 mph37%30.18 "Hg10 mi
11:00 AM64 °FSunny.18 mph37%30.21 "Hg10 mi
10:30 AM63 °FPassing clouds.15 mph42%30.21 "HgN/A
10:00 AM61 °FPassing clouds.20 mph39%30.21 "HgN/A
9:30 AM59 °FSunny.17 mph51%30.21 "Hg10 mi
9:00 AM59 °FSunny.14 mph55%30.21 "Hg10 mi
8:30 AM55 °FPassing clouds.13 mph67%30.21 "HgN/A
8:00 AM55 °FSunny.12 mph67%30.21 "Hg10 mi
7:30 AM54 °FPassing clouds.10 mph72%30.21 "HgN/A
7:00 AM52 °FClear.8 mph77%30.21 "Hg10 mi
6:30 AM52 °FPassing clouds.12 mph77%30.18 "HgN/A
5:30 AM54 °FPassing clouds.12 mph72%30.18 "HgN/A
5:00 AM54 °FPassing clouds.12 mph72%30.18 "HgN/A
4:30 AM55 °FClear.12 mph67%30.18 "Hg10 mi
4:00 AM55 °FClear.13 mph63%30.18 "Hg10 mi
3:30 AM57 °FPassing clouds.12 mph59%30.18 "HgN/A
3:00 AM57 °FPassing clouds.12 mph59%30.18 "HgN/A
2:30 AM57 °FPassing clouds.12 mph59%30.18 "HgN/A
2:00 AM59 °FOvercast.10 mph55%30.18 "HgN/A
1:30 AM59 °FOvercast.10 mph55%30.18 "HgN/A
1:00 AM61 °FOvercast.10 mph45%30.18 "HgN/A
12:30 AM61 °FPassing clouds.12 mph48%30.18 "HgN/A
12:00 AM61 °FPassing clouds.14 mph48%30.18 "HgN/A
11:30 PM
Tue, May 26
61 °FPassing clouds.13 mph55%30.15 "HgN/A
10:30 PM63 °FOvercast.15 mph59%30.15 "HgN/A
10:00 PM64 °FPartly sunny.14 mph52%30.12 "HgN/A
9:30 PM64 °FScattered clouds.13 mph52%30.12 "HgN/A
9:00 PM64 °FSunny.15 mph52%30.09 "Hg10 mi
8:30 PM66 °FSunny.15 mph52%30.09 "Hg10 mi
8:00 PM66 °FPassing clouds.20 mph52%30.09 "HgN/A
7:30 PM66 °FPassing clouds.20 mph56%30.09 "HgN/A
7:00 PM66 °FPassing clouds.24 mph52%30.09 "HgN/A
6:30 PM68 °FPassing clouds.21 mph56%30.09 "HgN/A
6:00 PM68 °FPassing clouds.21 mph53%30.07 "HgN/A
5:30 PM68 °FPassing clouds.21 mph49%30.09 "HgN/A
5:00 PM68 °FPassing clouds.21 mph53%30.09 "HgN/A
4:30 PM68 °FBroken clouds.22 mph53%30.09 "HgN/A
4:00 PM68 °FPartly sunny.22 mph49%30.09 "HgN/A
3:30 PM64 °FMostly cloudy.21 mph56%30.09 "HgN/A
3:00 PM66 °FPartly sunny.22 mph52%30.09 "HgN/A
2:30 PM66 °FBroken clouds.21 mph60%30.09 "HgN/A
2:00 PM63 °FPartly sunny.18 mph68%30.09 "HgN/A
Weather by CustomWeather, © 2015

See weather overviewHow to use our weather pages